Content
SEND FEEDBACK

Daily
Averages
Monthly
Summary
Turkmenistan

ASHGABAT, TURKMENISTAN


Home > Asia > Turkmenistan
Elevation: 775 feet     Latitude: 37 58N     Longitude: 058 20E

WEATHER
 
SELECT A DAY
Number of Records: 181,214;   Date Range: 3/15/97 - 10/22/14
 
SHARE

PRINT THIS DATA

[ ← Previous Day ]
WEATHER ALMANAC - OCTOBER 17, 2013
[ Next Day → ]
[ °C ]   °F
Weather ElementAverageHighLow
Temperature65.8 °F84.2 °F (4:00 pm)48.2 °F (6:00 am)
Dewpoint40.7 °F47 °F (11:00 am)32 °F (5:00 pm)
Humidity43 %76 % (6:00 am)12 % (5:00 pm)
Barometer30.05 in30.11 in (2:00 am)30.01 in (2:00 pm)
Wind Speed4.5 mph8.9 mph (2:00 pm)
Weather ElementAverage
Visibility6.1 mi
Wind DirectionESE (113.9 °)

Weather ElementTotal
Precipitation---
Cooling Degree Days1.2 (Base 65)
Growing Degree Days16.2 (Base 50)
Averaged from 31 records on October 17, 2013
WEATHER CONDITIONS BREAKOUT
WIND DIRECTION BREAKOUT
WEATHER BY HOUR - OCTOBER 17, 2013
[ °C ]   °F
Local TimeTemperatureDewpointHumidityBarometerVisibilityWind DirectionWind SpeedGust SpeedPrecipitationEventsConditions
1:00 AM53.6 °F41.0 °F62 %30.09 in6.2 miCalmClear
2:00 AM52.0 °F44.0 °F64 %30.11 in6.0 miSSE (150°)4.5 mph
2:00 AM51.8 °F42.8 °F71 %30.06 in6.2 miSSE (160°)4.5 mphClear
3:00 AM53.6 °F42.8 °F67 %30.06 in6.2 miSE (140°)2.2 mphClear
4:00 AM51.8 °F42.8 °F71 %30.04 in6.2 miCalmClear
5:00 AM50.0 °F42.0 °F64 %30.08 in6.0 miSouth (180°)2.2 mph
5:00 AM51.8 °F42.8 °F71 %30.04 in6.2 miSouth (190°)4.5 mphClear
6:00 AM48.2 °F41.0 °F76 %30.04 in6.2 miVariable2.2 mphClear
7:00 AM48.2 °F41.0 °F76 %30.06 in6.2 miWNW (290°)4.5 mphClear
8:00 AM49.0 °F42.0 °F69 %30.09 in6.0 miSSE (150°)4.5 mph
8:00 AM50.0 °F41.0 °F71 %30.06 in6.2 miSSE (160°)4.5 mphClear
9:00 AM62.6 °F42.8 °F48 %30.06 in6.2 miCalmClear
10:00 AM68.0 °F42.8 °F40 %30.06 in6.2 miVariable2.2 mphClear
11:00 AM71.0 °F47.0 °F31 %30.06 in6.0 miENE (60°)2.2 mph
11:00 AM73.4 °F41.0 °F31 %30.06 in6.2 miENE (70°)4.5 mphClear
12:00 PM78.8 °F37.4 °F23 %30.06 in6.2 miENE (70°)4.5 mphClear
1:00 PM78.8 °F37.4 °F23 %30.04 in6.2 miENE (70°)4.5 mphClear
2:00 PM81.0 °F42.0 °F15 %30.01 in6.0 miEast (100°)8.9 mph
2:00 PM82.4 °F35.6 °F19 %30.01 in6.2 miNE (40°)6.7 mphClear
3:00 PM82.4 °F35.6 °F19 %30.01 in6.2 miENE (60°)8.9 mphClear
4:00 PM84.2 °F33.8 °F16 %30.01 in6.2 miEast (90°)6.7 mphClear
5:00 PM82.0 °F39.0 °F12 %30.01 in6.0 miESE (110°)6.7 mph
5:00 PM82.4 °F32.0 °F16 %30.01 in6.2 miESE (110°)8.9 mphClear
6:00 PM78.8 °F37.4 °F23 %30.01 in6.2 miESE (120°)6.7 mphClear
7:00 PM73.4 °F39.2 °F29 %30.04 in6.2 miSE (130°)6.7 mphClear
8:00 PM70.0 °F46.0 °F31 %30.03 in6.0 miSouth (170°)4.5 mph
8:00 PM69.8 °F42.8 °F38 %30.04 in5.6 miSouth (170°)4.5 mphClear
9:00 PM68.0 °F44.6 °F43 %30.04 in5.6 miSouth (170°)4.5 mphClear
10:00 PM66.2 °F39.2 °F37 %30.04 in5.6 miSouth (170°)4.5 mphClear
11:00 PM62.0 °F44.0 °F41 %30.06 in6.0 miSSW (200°)4.5 mph
11:00 PM64.4 °F37.4 °F37 %30.04 in6.2 miSSW (200°)4.5 mphClear
Hourly data recorded from UTAA, located miles away from Ashgabat, Turkmenistan







STORIES FROM OUR PARTNERS